Theta_e
323 319 316 313 314 312 306 300 294 292 296 290 290 292 293 300 302 301 301 304 304 309 315 321 323 322 318 316 316 319 318 317 315 308 303 317 340 341 340 342 344 345 346 348 349 350 352 354 354 354 354 354 354 354 355 355 355 355 355 354 354 354 354 354 354 354 354 354 353 353 353 353 352 352 352 351 351 351 351 350 351 352 352 352 351 351 350 348 347 347 348 349 349 348 348 349 348
320 318 312 313 311 308 299 302 292 291 289 289 291 293 296 300 300 298 300 303 308 316 328 330 331 332 332 330 328 327 326 330 330 326 331 339 340 340 342 343 344 344 346 347 348 349 351 353 354 354 354 353 353 354 355 355 355 354 354 354 354 354 354 354 354 354 354 353 353 353 352 352 352 353 354 353 351 351 352 350 349 352 352 352 352 351 349 348 347 346 348 350 350 350 349 348 347
323 315 310 312 305 303 302 299 293 288 291 285 290 293 299 298 299 301 303 303 317 327 331 331 332 330 327 325 322 322 318 335 333 334 333 339 334 336 341 343 344 345 346 346 348 349 350 352 354 354 353 353 353 355 354 354 355 354 354 354 354 354 354 354 354 354 353 352 352 351 351 351 351 352 352 352 352 352 352 350 347 350 351 351 351 351 349 348 346 346 348 350 350 350 349 348 347
318 315 311 306 302 299 296 294 289 289 288 287 288 295 297 299 301 303 304 306 307 317 322 321 322 329 324 318 322 331 329 332 335 333 331 335 336 339 340 342 345 345 345 347 347 348 350 353 354 354 353 353 353 354 354 354 354 353 354 354 354 354 354 354 354 353 352 352 351 350 350 350 350 350 350 350 351 351 350 350 349 349 350 350 350 350 350 348 347 347 348 349 350 350 350 347 345
309 316 311 307 300 298 295 292 289 288 288 287 289 294 298 300 301 303 303 304 305 305 315 324 325 331 332 328 332 324 325 335 335 337 335 339 341 340 341 343 343 344 344 346 347 347 349 354 354 353 353 353 353 354 354 353 353 353 354 354 354 354 354 354 353 352 352 351 350 349 349 349 349 348 348 348 348 349 349 349 350 349 349 350 350 350 349 347 346 346 348 349 349 350 350 348 347
306 307 311 305 299 299 296 294 291 289 293 292 291 295 299 301 301 303 303 304 305 304 312 324 325 326 326 329 334 327 335 326 336 337 337 336 340 341 342 343 342 343 344 345 345 346 349 353 353 354 353 353 352 353 353 353 353 353 354 354 354 354 354 353 352 351 351 350 350 349 348 347 346 345 345 345 346 347 348 349 348 348 349 350 349 350 349 347 345 345 347 348 349 348 349 348 347
305 303 304 302 301 300 289 287 287 289 293 295 296 298 299 301 303 303 303 303 305 305 322 326 330 328 324 330 333 335 339 341 337 337 339 338 340 341 341 340 340 341 343 344 345 346 349 353 353 353 353 352 352 353 353 353 353 354 354 354 354 354 353 352 351 351 350 350 349 347 346 345 344 344 343 343 344 345 346 347 348 348 347 349 349 350 349 347 346 345 346 347 348 347 347 347 347
312 302 301 294 293 294 291 288 289 289 292 297 298 298 300 301 303 302 302 301 301 302 324 328 327 325 323 334 323 334 343 343 341 341 340 340 339 340 340 340 339 340 342 343 344 346 352 353 353 352 352 352 353 353 353 353 354 354 354 354 354 353 353 352 351 350 349 347 347 346 346 346 346 346 347 345 344 344 345 346 347 347 347 349 349 349 348 347 345 344 344 347 347 348 347 347 347
305 302 303 295 293 294 288 289 290 293 294 296 298 302 308 303 304 302 301 303 303 303 322 325 327 320 323 331 329 336 337 341 341 341 339 338 338 340 340 340 339 339 341 343 344 346 349 353 352 352 352 352 352 353 353 354 354 354 354 354 353 353 352 352 350 348 347 347 346 346 346 346 345 345 345 345 345 344 344 344 345 346 347 347 347 347 346 346 345 344 345 345 345 346 347 347 348
304 301 295 293 289 290 288 286 289 292 295 298 298 300 301 302 302 303 302 302 303 315 318 327 327 322 330 326 330 334 334 340 340 338 338 338 339 340 340 340 340 340 341 342 344 346 348 353 352 352 351 352 353 353 353 354 354 354 354 354 353 353 352 351 349 348 347 347 347 346 346 345 344 343 343 343 344 343 342 342 342 343 345 345 345 345 345 345 345 345 344 344 344 344 345 346 346
299 302 297 294 290 286 288 287 290 293 295 298 299 301 302 303 302 302 302 302 304 319 327 332 329 329 331 330 330 339 340 339 337 334 337 340 340 339 339 341 341 341 341 342 344 346 348 349 352 352 352 352 353 353 353 354 354 354 353 353 353 352 351 350 350 348 348 347 346 345 344 344 344 343 342 342 341 341 341 341 341 342 344 345 344 343 343 344 344 344 343 343 343 343 344 344 346
296 294 297 289 288 288 287 288 291 293 295 295 296 301 304 303 302 300 302 300 301 323 324 328 325 333 328 328 328 336 338 337 337 338 340 341 338 339 340 340 341 342 343 343 345 344 346 348 349 351 352 353 353 354 354 354 354 353 353 353 353 352 351 350 350 348 348 347 346 346 345 344 344 344 342 342 342 341 341 341 341 341 342 344 343 343 341 342 344 344 343 342 341 343 343 343 344
296 293 292 288 285 287 288 288 289 293 292 294 297 301 303 300 300 301 301 301 302 322 321 327 335 333 323 327 335 338 335 337 340 341 340 338 339 340 340 340 341 342 343 344 343 344 346 346 348 349 352 354 354 354 354 354 353 353 353 353 352 352 351 351 349 348 347 347 346 346 346 345 344 344 343 343 341 340 340 340 340 340 340 342 343 342 341 342 344 343 343 342 343 342 343 344 344
297 295 292 289 288 289 288 288 288 289 290 295 298 302 303 301 301 301 301 300 299 310 317 334 334 334 329 333 334 333 335 340 342 340 340 339 340 339 339 340 340 341 342 342 342 344 345 346 348 349 351 350 351 353 354 353 353 353 353 353 352 351 351 350 349 348 348 348 347 346 346 345 345 345 344 344 343 343 341 340 340 340 340 340 341 341 342 342 342 343 343 343 343 343 344 343 344
297 298 294 290 289 289 289 288 289 290 290 295 298 300 300 303 302 300 299 299 301 318 334 338 336 329 324 329 329 333 337 342 340 340 339 339 339 338 338 339 339 339 340 341 342 343 344 346 348 349 350 350 350 350 350 352 353 353 353 352 352 351 351 350 349 349 349 349 348 347 347 346 346 346 345 345 344 343 342 342 340 340 339 340 340 340 342 341 343 343 344 343 344 344 344 344 344
300 296 295 291 287 288 288 290 291 289 291 296 300 301 299 301 302 301 302 301 308 332 334 326 334 321 332 332 333 338 340 340 340 339 337 336 337 337 337 337 337 337 338 339 340 342 344 347 347 348 350 351 351 351 351 350 353 353 353 353 352 351 350 350 350 349 349 349 348 347 347 346 346 343 346 344 345 344 344 342 342 340 340 340 340 340 341 342 342 343 343 343 344 344 344 344 343
301 299 290 288 288 289 289 290 291 287 294 297 300 299 299 299 301 302 304 304 318 325 324 326 327 338 334 334 339 341 341 340 339 337 335 334 334 333 334 334 334 335 337 337 338 340 343 346 347 348 349 350 350 350 350 349 351 353 352 352 352 351 351 350 350 349 349 348 348 348 347 341 340 340 338 339 345 341 344 344 344 344 342 342 340 341 341 341 342 343 342 343 343 344 344 343 343
301 292 289 288 289 290 292 294 293 292 294 297 299 300 299 297 300 302 304 302 310 323 330 334 337 337 338 340 343 343 340 338 337 334 333 331 331 330 330 331 332 332 333 334 336 339 343 345 346 347 348 348 349 349 349 349 350 350 348 349 349 349 349 350 347 344 350 341 348 346 341 344 339 337 337 347 342 343 344 345 345 345 344 344 344 343 344 343 343 343 343 343 343 344 344 338 337
298 291 289 290 290 293 296 296 297 296 297 299 300 298 299 301 300 303 302 300 307 324 329 333 332 336 339 340 341 340 338 337 335 334 331 330 329 328 328 330 330 331 331 333 334 337 341 342 343 346 346 348 348 348 348 348 348 347 347 347 347 349 349 348 344 347 341 342 342 342 344 341 340 340 340 345 347 347 346 346 346 344 344 344 344 344 344 345 345 345 346 346 345 345 342 335 334
299 294 289 292 293 294 297 298 299 299 299 298 299 299 299 302 302 305 302 298 313 320 325 327 330 330 335 337 339 338 337 336 336 333 331 330 329 329 329 329 329 330 331 332 333 336 338 338 340 343 344 346 346 346 347 348 347 347 346 345 345 345 345 346 343 344 344 343 344 342 342 342 344 341 349 352 353 348 345 347 347 346 346 346 346 345 346 346 346 346 346 346 345 343 338 336 335
297 296 293 292 295 294 297 298 299 300 300 299 298 299 300 301 302 304 300 299 300 313 328 328 329 332 334 337 338 337 336 335 335 334 332 331 331 331 331 330 330 331 332 333 333 334 335 335 337 339 341 342 342 344 345 346 346 347 345 344 344 342 343 344 344 344 343 343 343 343 343 343 344 342 341 343 343 343 338 340 341 339 340 337 346 338 337 339 341 339 339 340 338 338 338 337 335
299 297 298 296 295 295 299 300 301 300 302 298 297 296 298 302 302 301 301 298 293 300 316 331 335 335 335 335 336 337 335 335 334 333 332 331 330 330 332 332 333 334 334 332 332 333 334 335 336 336 339 339 341 342 343 345 345 344 343 343 342 342 343 344 343 343 343 344 342 343 346 343 343 341 337 336 339 339 338 338 338 337 337 339 341 339 337 337 337 337 337 337 336 337 337 336 335
294 297 296 297 299 296 300 300 301 301 300 298 297 298 299 299 299 300 300 299 298 303 323 336 337 338 338 338 337 335 334 334 334 333 333 331 331 331 331 332 332 332 332 332 333 334 335 334 335 336 336 337 339 340 341 343 342 342 342 342 342 341 343 343 343 343 343 342 342 343 344 341 338 337 332 333 336 338 336 336 336 337 337 336 339 338 338 338 337 337 336 337 336 336 336 336 335
297 294 296 298 298 299 302 302 302 299 298 298 299 301 299 298 297 301 299 299 302 304 333 337 338 339 339 336 336 335 335 334 334 334 334 333 332 332 332 332 334 334 333 332 333 335 336 335 336 336 335 336 338 338 339 341 339 340 342 346 344 344 343 342 343 342 343 340 342 342 343 335 333 336 337 338 337 339 337 335 336 336 336 338 340 340 340 337 336 336 337 337 338 338 338 338 338
295 295 297 298 299 300 301 302 302 301 300 301 299 299 299 299 299 300 299 299 301 308 336 338 338 338 337 336 335 335 335 334 333 333 333 332 331 332 333 335 335 334 332 333 335 336 335 337 336 335 335 336 337 337 338 340 339 339 341 343 342 346 343 342 342 340 339 337 338 339 343 337 338 339 337 339 337 337 338 339 339 339 339 341 339 338 338 338 337 336 337 337 337 337 335 336 336
296 296 298 298 299 299 300 301 302 302 302 301 298 298 299 299 300 300 300 300 301 329 336 337 337 335 335 335 335 335 334 334 331 329 328 329 330 330 331 334 335 334 334 335 336 336 337 337 336 335 335 335 336 335 337 337 337 336 339 342 341 343 339 340 338 336 334 334 333 337 344 339 340 338 338 338 339 338 340 341 342 338 338 339 339 338 339 337 336 335 334 334 337 337 336 337 338
297 297 297 297 299 300 300 299 300 300 299 299 298 298 298 300 300 294 298 300 305 333 334 336 335 334 334 335 335 334 331 328 327 327 328 329 329 331 332 333 332 335 338 337 337 337 338 337 336 336 336 337 335 334 335 335 337 335 339 341 339 339 338 338 336 334 333 331 336 339 341 344 341 340 339 338 337 337 338 339 337 338 337 338 339 337 337 336 335 335 336 335 336 336 336 336 336
299 297 296 296 298 299 300 300 299 297 298 297 299 298 299 299 299 296 298 302 305 330 333 334 333 333 334 334 329 325 326 327 327 327 325 326 327 330 330 330 332 333 332 333 337 338 337 336 336 336 336 336 335 333 335 334 336 335 338 338 336 337 337 334 334 337 338 338 339 340 339 340 343 340 339 339 339 336 336 335 335 336 335 338 337 335 335 335 335 337 337 337 336 334 334 334 334
297 297 293 295 295 295 298 297 300 299 297 298 298 297 295 296 295 297 299 301 305 329 331 333 332 333 329 325 325 326 326 327 327 326 327 329 332 332 331 333 332 330 333 334 336 337 337 337 336 337 337 336 334 333 335 336 336 336 335 335 336 336 336 338 337 335 335 337 337 336 334 337 339 339 339 337 339 335 335 335 334 334 336 334 335 337 337 334 335 335 335 334 334 333 333 332 334
298 296 293 293 292 291 296 298 299 298 297 298 299 288 288 292 295 298 300 301 302 327 329 331 329 324 324 324 324 325 326 327 326 327 329 330 332 332 332 333 332 331 332 333 335 336 337 338 340 338 336 335 334 335 336 335 335 333 335 337 338 338 338 338 337 335 337 335 335 334 335 336 338 339 338 337 335 334 334 335 335 336 336 336 335 336 334 333 333 333 331 330 336 331 330 331 330
290 294 294 287 287 285 293 296 297 296 299 298 299 289 287 292 295 298 304 305 302 315 328 327 324 322 322 324 324 324 326 326 327 328 328 330 331 332 333 333 332 332 333 334 335 336 338 337 340 337 337 335 337 336 336 333 334 335 337 338 338 336 336 335 333 333 333 333 333 333 334 337 340 339 339 337 334 335 335 334 336 337 335 335 334 335 334 334 332 330 330 330 329 328 329 331 330
291 288 285 287 287 284 293 297 297 295 298 298 297 290 290 292 295 297 301 305 301 320 323 322 323 324 323 322 322 321 323 325 326 327 328 329 331 332 333 332 333 333 333 334 335 336 336 336 339 335 337 336 336 335 334 336 337 338 337 339 335 334 333 333 333 333 333 333 333 331 333 336 338 336 337 338 337 337 336 335 334 336 336 335 334 333 333 332 330 331 329 328 327 328 329 328 329
289 286 284 285 285 286 291 295 296 298 298 297 297 288 291 293 296 297 312 306 312 320 319 322 324 323 321 321 321 321 323 324 325 326 327 329 330 332 333 333 333 333 334 334 334 335 335 337 339 335 336 334 336 337 337 337 336 335 334 334 334 334 333 334 334 334 333 333 333 332 331 336 335 336 336 337 338 336 335 333 333 334 334 332 331 329 329 330 328 330 328 329 326 325 326 325 326
283 286 284 286 287 286 286 291 295 296 297 294 295 292 291 295 305 310 313 313 316 317 319 321 322 322 321 321 321 321 322 323 323 324 326 328 330 332 333 334 334 334 334 334 335 335 335 337 336 336 334 337 338 337 336 335 334 334 334 334 336 333 332 333 333 334 332 332 332 332 334 335 335 334 335 338 335 336 333 332 331 332 332 330 329 329 328 329 328 326 326 327 328 325 324 324 324
281 284 284 285 287 288 288 289 292 296 295 294 293 292 293 294 313 313 315 316 316 317 319 319 319 319 319 320 321 321 322 323 323 326 327 329 330 332 333 333 334 334 334 334 335 336 337 336 336 337 337 338 337 336 335 335 334 333 332 332 333 333 333 333 334 334 332 332 331 331 332 332 333 333 336 337 333 332 331 331 330 330 330 329 328 327 327 327 327 326 325 325 326 325 323 324 325
287 287 286 286 285 286 286 291 295 296 292 291 292 290 292 302 312 314 315 316 315 316 317 317 317 318 319 321 321 322 322 322 325 327 328 330 331 331 332 333 334 334 334 334 335 336 335 335 336 336 338 338 337 335 335 334 334 333 332 331 332 332 331 333 333 333 333 332 333 333 333 332 334 335 334 333 332 331 330 329 329 329 329 328 326 326 325 324 325 324 325 324 324 325 325 326 326
290 290 288 287 287 288 291 292 294 296 293 291 292 293 293 298 312 313 315 315 315 314 314 315 316 317 319 321 321 321 322 322 325 326 328 329 330 331 332 333 333 333 333 334 334 334 334 334 335 335 337 337 336 334 334 334 333 332 331 330 330 329 330 330 331 331 331 331 331 332 333 332 334 334 333 331 330 333 329 328 328 328 328 328 326 325 324 325 326 324 324 325 324 324 324 326 327
290 289 288 287 288 287 291 292 295 296 293 290 292 293 293 301 312 314 315 314 313 313 314 315 316 317 319 320 320 320 321 323 325 325 325 327 329 329 331 331 332 330 331 333 333 333 333 335 335 335 336 336 336 335 335 335 334 333 331 330 329 330 331 329 328 329 330 332 333 334 334 332 330 331 332 331 330 329 328 327 327 326 326 327 327 326 326 329 326 326 325 324 324 322 323 326 327
290 288 286 286 286 290 293 294 296 295 293 290 290 291 292 299 312 314 314 314 315 316 316 316 316 316 317 318 319 319 320 321 323 324 325 326 328 329 330 331 331 331 331 331 332 332 332 334 335 336 335 335 336 336 335 334 331 333 331 330 331 330 329 329 329 330 332 331 333 332 331 329 330 330 331 331 329 328 327 326 327 327 327 329 326 325 325 325 325 325 325 323 322 323 323 327 326
287 287 285 284 287 287 284 292 294 295 293 289 290 290 290 304 312 313 315 315 315 316 316 317 318 317 317 318 319 318 319 320 321 322 324 326 327 328 328 329 329 330 330 331 332 332 333 334 336 335 335 335 336 336 335 334 334 333 333 332 330 327 326 331 329 329 330 331 329 330 329 329 329 329 329 329 328 327 327 327 327 327 327 327 325 325 324 325 325 325 325 326 322 322 322 323 326
288 288 287 287 288 289 289 288 292 294 295 295 291 290 292 305 308 309 312 315 315 315 316 317 317 317 318 318 319 320 319 320 320 322 324 325 326 326 327 328 328 328 328 330 332 333 334 334 335 335 335 335 335 336 335 334 334 332 331 330 330 329 329 327 327 327 328 330 328 327 328 329 329 328 328 328 329 327 328 328 327 326 326 325 325 324 324 324 325 325 326 325 324 320 321 320 323
287 289 289 290 290 289 291 292 290 288 286 292 291 282 282 295 309 309 311 312 311 314 314 315 317 317 317 316 317 319 321 322 321 323 324 326 327 327 327 327 327 327 328 330 332 334 334 335 335 335 334 334 334 334 334 333 332 330 328 326 325 324 325 326 327 327 325 324 325 326 328 329 328 328 328 328 329 328 327 327 326 325 324 325 325 324 324 324 324 325 326 325 324 326 323 320 319
284 286 291 292 291 291 291 289 288 281 282 289 294 285 277 294 303 307 309 311 310 311 313 315 316 316 316 316 317 319 320 321 323 325 326 326 326 326 326 326 327 327 328 330 332 333 335 334 334 335 334 334 334 334 333 332 330 329 328 327 327 327 326 323 325 327 326 326 327 326 327 327 328 327 327 328 327 327 326 325 325 324 325 324 326 324 323 323 324 326 326 325 325 325 324 319 318
285 291 291 292 291 290 290 291 288 284 289 291 292 289 288 290 297 308 309 310 310 311 312 313 315 315 316 316 317 319 320 322 323 324 325 326 326 326 326 327 327 328 330 331 332 334 334 334 334 334 334 334 334 334 333 332 330 328 327 326 327 327 327 326 328 328 328 328 326 326 326 326 326 327 327 327 328 327 325 324 324 324 324 325 325 323 322 323 325 326 326 324 325 324 321 318 316
288 291 291 290 291 291 291 289 286 287 288 282 287 291 288 287 297 308 310 307 308 309 311 312 314 314 315 316 317 319 321 322 324 324 325 326 326 327 328 328 329 330 331 332 334 335 335 335 334 333 333 333 333 334 333 332 331 329 328 327 326 324 327 328 330 330 327 328 326 325 325 325 325 326 326 326 326 326 326 323 322 322 323 323 325 323 323 325 325 324 322 321 320 320 320 318 316
292 292 293 292 292 292 290 287 286 287 285 280 285 288 280 288 301 307 310 308 307 309 311 312 313 314 315 316 318 320 321 322 326 326 326 327 327 327 329 330 330 331 332 334 335 336 335 334 333 333 332 333 334 333 332 330 329 329 327 326 325 325 327 327 328 326 326 326 325 324 324 323 323 323 324 324 324 324 323 323 322 322 321 323 324 322 323 325 324 323 322 319 319 318 318 317 316
294 293 291 290 289 289 289 288 287 285 279 281 286 288 289 285 300 305 304 306 309 310 312 313 315 315 317 317 319 320 321 322 324 326 327 327 328 328 331 331 331 332 333 334 334 335 335 333 333 333 333 334 334 331 330 329 328 327 327 326 326 325 326 326 326 324 324 323 324 323 322 321 322 322 323 322 322 322 322 323 321 321 322 324 323 322 324 324 323 321 319 318 317 317 316 316 315
292 289 289 286 286 288 286 285 285 280 275 279 287 288 289 283 292 303 310 312 312 312 311 312 313 316 317 318 318 320 321 322 324 326 326 326 327 329 331 331 331 332 332 332 333 335 334 333 333 333 333 333 332 330 329 328 327 326 325 326 326 326 327 327 325 324 323 323 323 322 321 320 320 320 321 320 320 320 321 319 320 320 322 321 323 324 323 322 321 320 318 316 316 316 316 315 313
290 288 287 283 277 280 276 281 278 276 278 283 286 289 285 283 292 306 309 310 312 314 315 314 314 316 317 318 319 320 321 322 324 325 326 326 326 327 329 331 331 331 331 332 333 334 334 333 334 333 333 331 329 328 327 327 326 326 325 325 326 327 327 327 324 323 323 323 322 320 319 318 319 319 319 319 318 318 319 319 319 319 320 322 321 321 321 320 318 318 317 315 315 314 313 312 311
289 286 282 281 276 276 272 276 275 277 282 286 287 288 284 284 288 303 309 311 313 315 316 317 316 316 316 317 318 319 321 322 323 325 326 325 326 327 330 330 331 331 331 332 333 333 333 333 334 333 331 329 327 327 326 326 325 326 326 326 327 327 324 324 323 323 323 323 322 320 319 318 318 318 319 318 318 317 317 318 318 318 319 319 319 318 318 318 317 317 316 315 313 313 312 311 311
289 289 287 282 281 279 272 276 276 277 277 282 288 285 280 283 286 302 311 313 313 315 317 317 317 317 317 318 318 319 321 322 322 324 326 325 326 327 329 330 331 331 332 333 333 333 333 333 333 331 329 327 326 326 326 326 326 326 326 325 325 324 323 322 322 322 322 321 321 320 319 319 319 319 320 320 320 317 317 317 319 318 318 317 317 317 317 316 316 316 316 315 314 312 311 311 310
290 289 289 282 284 282 280 279 277 280 281 281 284 281 284 287 295 302 308 311 313 315 315 316 315 316 316 316 316 318 320 321 322 324 325 326 326 327 329 330 331 331 332 333 333 333 333 332 331 330 328 327 327 327 326 326 325 325 324 323 323 324 324 322 321 322 321 321 320 320 319 319 319 319 320 320 320 318 317 318 318 317 317 317 316 315 315 315 315 315 313 313 312 314 310 309 309
288 288 285 286 290 288 279 280 284 279 279 278 278 285 286 290 298 304 308 310 312 313 314 314 314 315 315 315 316 317 319 321 322 324 325 326 327 327 329 330 330 331 332 332 332 333 332 331 329 328 327 327 327 326 325 325 324 322 322 322 322 322 321 321 320 320 320 320 320 319 319 319 319 319 319 318 316 316 316 316 315 315 316 315 314 314 314 314 315 314 312 311 310 310 310 308 308
287 285 285 291 292 290 284 276 279 275 274 276 281 282 282 284 281 299 306 307 310 311 312 313 313 314 314 314 316 317 319 321 324 326 326 326 327 328 329 330 331 331 332 332 332 333 332 330 329 327 327 326 325 325 324 323 322 322 321 321 321 321 321 321 321 320 320 320 319 320 319 319 318 320 319 319 315 316 318 318 314 314 314 314 313 313 313 314 314 313 312 310 309 309 308 308 308
291 287 291 289 279 281 281 281 276 275 275 275 279 282 282 281 288 299 301 305 307 310 311 311 311 312 313 314 316 318 320 321 325 326 326 326 326 328 329 330 331 332 332 333 332 332 331 329 329 328 326 325 325 324 323 322 322 322 322 321 320 320 321 320 320 320 320 319 318 318 318 318 317 318 319 316 316 316 316 314 314 313 313 312 312 312 314 314 313 311 311 309 309 308 307 306 307
294 292 291 290 286 279 280 281 281 280 273 275 276 281 280 286 295 302 303 306 308 310 310 311 312 312 314 314 316 317 318 321 325 325 326 326 327 327 328 329 330 330 331 332 331 330 329 329 329 327 326 325 324 323 322 321 321 322 321 321 320 321 320 320 319 318 318 317 317 317 316 315 314 316 315 316 316 317 315 313 312 312 311 310 311 311 313 312 311 310 310 309 308 308 306 306 305
285 286 285 288 290 289 287 287 283 281 275 274 272 276 278 284 294 304 305 307 309 311 311 312 312 313 314 315 316 317 319 321 325 325 326 326 326 327 327 329 330 331 331 331 330 329 329 329 327 326 325 324 322 321 321 320 321 321 320 319 319 319 318 318 318 318 317 317 316 316 316 313 315 314 313 314 315 314 313 312 311 311 310 310 310 310 312 312 311 309 309 308 308 307 306 305 306
286 285 282 284 285 284 281 279 285 285 280 276 276 275 278 288 298 306 307 309 310 312 312 313 313 313 314 315 316 317 318 322 325 326 326 326 326 326 327 329 330 329 329 329 329 329 328 327 326 325 324 323 321 320 320 320 320 320 318 318 318 318 318 318 317 317 316 316 315 314 313 313 311 311 314 313 312 312 311 310 309 308 307 308 308 309 310 311 310 309 308 309 307 306 305 304 304
Wind_Speed
7 6 6 6 3 1 2 3 2 4 2 3 4 3 5 0 2 7 9 9 3 4 3 8 10 9 4 5 7 2 2 16 8 12 9 2 5 11 14 16 15 14 14 12 10 11 12 15 17 19 19 19 18 17 17 17 17 17 16 17 17 17 16 15 15 14 15 14 13 12 11 11 10 10 10 9 9 9 10 10 11 12 12 12 12 11 11 10 10 9 9 9 8 7 6 7 6
4 6 5 4 3 2 1 0 2 2 3 2 6 2 7 5 4 4 9 6 0 2 4 8 5 7 9 12 7 12 4 5 2 2 3 2 10 9 14 16 17 17 12 11 11 11 11 13 17 18 18 19 18 18 17 17 17 17 17 17 17 16 16 15 15 15 15 13 13 12 11 11 11 9 8 8 7 7 7 9 9 11 10 10 11 11 10 10 9 9 9 8 7 6 5 5 5
4 6 7 5 3 2 0 2 1 0 0 5 7 5 5 8 9 3 9 5 2 5 10 10 10 8 6 3 7 4 2 3 8 3 4 8 14 7 13 15 16 18 16 10 10 10 9 12 18 18 18 18 19 18 17 17 17 17 17 17 16 16 15 14 15 15 15 14 12 12 11 10 9 9 9 9 9 5 4 6 10 9 9 9 10 10 9 9 9 9 9 8 7 6 5 3 3
3 1 2 3 1 3 1 2 2 4 2 6 6 6 5 7 12 6 7 8 2 1 0 2 3 3 2 3 3 6 3 2 5 11 7 12 6 16 14 13 13 13 12 10 10 9 9 14 19 18 18 18 18 18 18 17 17 17 17 17 17 16 15 15 15 15 15 13 12 11 10 10 9 8 9 9 9 9 9 7 8 9 8 8 8 9 8 8 8 8 8 8 8 7 5 3 2
4 1 1 2 2 0 2 2 3 5 5 3 5 6 7 9 10 8 5 5 6 4 2 5 2 4 2 4 1 1 6 4 7 5 8 2 5 14 15 14 13 13 12 11 10 9 10 20 17 17 17 18 18 18 17 17 17 17 17 17 16 16 16 15 15 15 14 13 12 10 10 9 8 8 8 8 8 9 9 8 6 8 8 7 7 8 7 7 7 7 7 7 7 7 5 4 3
2 3 1 2 0 1 2 0 2 4 8 5 4 6 8 11 10 11 8 6 8 5 3 2 2 2 3 3 1 2 5 6 9 4 10 6 14 12 15 15 14 12 12 10 9 8 10 20 18 17 17 18 18 18 18 17 17 17 17 16 17 16 15 14 13 14 14 13 11 10 9 8 8 7 7 6 7 7 8 7 5 6 7 7 8 7 7 7 6 7 7 7 7 6 5 4 4
2 4 2 2 2 1 4 4 7 6 8 5 6 7 9 14 12 10 10 8 8 4 2 5 9 6 4 1 2 1 3 4 8 8 8 15 13 13 14 14 14 13 12 10 9 8 12 18 15 16 17 18 18 18 17 17 18 17 17 16 16 16 15 14 14 13 13 12 11 9 9 8 8 7 6 6 6 6 6 6 6 5 3 6 7 7 6 6 6 6 7 7 6 5 4 4 4
0 2 1 2 1 1 1 5 7 5 6 9 6 7 9 12 15 8 13 4 8 4 4 5 4 6 2 2 3 4 6 3 8 12 14 16 15 12 11 14 14 13 11 9 8 8 16 16 15 15 17 17 18 18 18 18 17 16 16 16 16 15 15 14 14 13 12 11 11 10 9 8 8 7 6 6 5 5 6 6 5 5 5 7 7 6 6 6 5 5 6 7 6 6 5 6 5
1 2 1 4 2 0 1 5 6 3 5 2 7 10 12 13 15 12 13 8 9 5 8 9 8 7 4 3 1 4 3 11 11 16 16 16 16 13 9 11 15 13 11 9 8 9 10 14 14 15 17 18 17 18 17 18 16 16 16 16 15 15 14 14 13 12 12 11 10 9 9 8 8 7 7 6 6 5 5 5 5 5 5 5 5 5 5 5 4 5 5 6 6 6 6 7 7
0 1 1 2 3 5 1 4 3 7 9 9 10 13 11 10 13 14 12 12 15 1 8 6 2 6 6 6 1 2 3 12 16 13 14 15 13 10 10 11 14 17 12 9 7 8 8 15 14 14 15 17 16 16 15 15 15 15 15 15 14 14 14 13 12 12 12 11 10 9 9 8 7 6 6 5 4 4 4 4 4 4 4 4 4 4 4 4 4 4 5 5 6 6 7 7 8
0 0 2 2 2 3 7 6 7 6 5 5 6 12 14 12 10 14 11 11 13 5 2 7 6 10 6 2 0 1 8 13 17 13 11 12 10 12 11 10 11 14 15 11 8 8 9 10 16 13 13 14 13 13 13 13 13 13 13 13 13 13 14 13 13 12 11 11 10 9 9 9 8 7 6 6 4 4 4 3 3 4 3 3 4 3 2 3 3 4 5 5 6 6 7 8 9
1 2 1 3 6 8 7 6 6 7 6 4 4 9 8 11 9 8 16 12 6 11 11 9 9 10 5 3 0 6 7 9 13 13 10 10 12 11 11 9 10 10 13 13 11 8 8 9 9 14 13 13 12 12 12 13 13 13 14 13 13 13 13 13 12 11 11 10 10 9 9 8 8 7 6 6 5 4 3 3 3 2 3 3 2 2 1 1 2 4 4 5 5 6 6 7 8
2 2 3 2 4 3 4 4 4 5 5 6 7 8 11 6 7 11 11 12 3 11 6 5 14 4 5 3 3 4 9 6 9 11 10 11 11 10 10 11 11 12 11 12 12 10 10 7 7 8 11 16 12 12 12 14 13 13 13 12 13 12 13 12 11 11 11 10 9 9 8 8 8 7 6 6 5 4 3 2 2 1 2 3 3 1 1 1 2 3 4 4 5 5 6 7 8
3 5 5 5 1 4 4 3 2 3 5 6 5 9 9 6 5 6 8 12 8 12 6 11 13 8 6 7 5 6 8 8 11 12 12 12 10 11 11 11 12 12 12 11 11 11 9 8 7 8 9 9 8 11 13 15 13 13 12 12 12 12 12 11 11 11 10 10 9 9 8 8 8 7 6 6 5 4 3 3 2 1 1 1 2 1 1 2 3 4 4 5 6 7 7 7 8
5 1 2 2 2 2 3 4 6 6 7 6 6 6 6 6 7 6 6 5 1 3 9 7 5 11 8 11 6 11 12 12 13 14 14 12 12 12 12 11 10 11 10 10 10 10 10 8 8 7 7 7 7 6 6 11 15 14 13 13 12 12 11 11 11 10 10 9 9 8 8 8 7 7 6 6 5 4 3 3 2 1 2 2 1 2 2 3 4 5 6 6 7 8 8 8 8
5 3 2 2 4 4 4 5 5 4 7 7 12 11 5 8 5 2 4 4 3 4 13 4 4 2 11 16 15 18 15 15 14 15 15 15 13 12 12 11 10 9 10 11 9 8 9 8 7 7 7 7 7 6 7 8 13 15 14 13 13 11 11 10 11 10 9 9 9 8 8 5 5 4 6 4 6 5 4 2 3 2 2 3 2 2 3 4 5 6 6 7 8 8 9 9 9
1 3 3 3 6 5 4 4 6 6 7 8 9 3 2 6 4 4 3 1 13 11 4 1 5 2 18 9 13 19 16 16 16 17 16 12 11 9 9 9 9 8 7 9 9 8 8 9 9 7 7 7 7 7 6 7 10 14 12 13 12 11 10 10 10 9 8 8 7 7 6 2 2 2 3 2 5 3 5 4 5 4 3 3 3 3 3 4 5 6 7 7 8 8 9 10 10
2 4 5 7 6 8 5 7 5 4 5 8 2 3 3 5 3 3 3 3 6 5 6 2 7 8 4 7 21 19 18 19 17 18 15 13 10 10 9 9 10 10 9 9 7 8 9 8 9 8 7 8 7 6 5 5 7 9 6 7 6 7 8 8 6 4 6 3 7 5 3 3 3 3 2 5 3 3 4 6 5 5 4 3 3 4 4 4 5 6 6 7 8 8 9 5 5
6 2 6 12 6 6 3 3 5 3 8 10 1 5 4 7 3 1 1 2 2 6 4 4 8 8 11 15 19 20 19 17 16 16 17 17 14 16 13 11 10 10 9 8 7 7 8 7 7 8 8 8 8 6 5 5 6 5 5 5 4 7 6 5 3 4 3 3 3 3 3 3 3 3 3 4 4 6 5 7 6 5 5 4 4 4 5 6 6 7 8 8 8 8 5 5 5
6 4 8 10 4 4 7 6 9 7 6 11 6 6 6 4 2 1 1 3 3 6 6 3 6 9 14 16 19 18 18 17 15 17 17 16 15 16 14 12 10 8 9 8 8 5 6 6 7 7 8 8 7 5 5 5 5 5 4 4 4 4 4 4 4 4 4 3 3 4 3 3 3 4 6 9 7 4 4 6 7 6 5 5 5 4 5 6 8 8 8 9 6 4 4 4 4
2 6 8 4 5 5 7 7 8 10 9 7 5 5 7 6 2 0 3 0 2 4 8 13 12 14 15 18 19 18 18 17 17 16 16 16 12 8 9 10 10 9 8 8 7 7 5 5 6 6 6 6 6 5 5 5 5 4 4 4 4 4 4 4 5 5 3 4 4 4 4 3 4 4 4 4 2 3 3 3 3 3 1 2 3 2 2 3 4 4 4 5 4 5 5 5 4
1 8 5 2 2 8 9 9 10 9 12 5 4 4 7 8 6 2 2 4 3 5 8 5 16 17 19 18 17 16 18 18 18 18 18 17 16 14 12 11 10 10 10 10 10 9 8 6 6 5 5 5 5 5 5 6 6 4 4 4 4 4 4 5 5 4 4 4 4 4 4 5 5 5 4 4 3 4 4 4 4 2 2 2 2 3 3 3 3 3 3 4 5 4 5 5 5
8 6 3 5 6 4 2 6 10 10 9 6 2 2 3 1 3 2 3 2 4 5 5 14 19 21 22 20 18 15 16 19 20 20 18 17 17 15 13 12 12 11 9 10 10 9 9 6 6 6 6 5 5 5 5 5 5 5 4 5 4 5 4 5 5 5 5 4 4 4 5 5 4 5 4 5 5 4 4 3 3 2 2 3 2 2 3 3 4 4 4 4 4 3 5 5 5
7 8 3 7 5 10 9 10 9 5 7 6 4 5 5 2 5 0 4 3 6 8 7 14 14 15 18 18 19 23 20 20 19 12 10 9 8 9 10 12 10 10 9 9 9 9 9 9 8 7 6 6 5 5 6 6 5 5 5 6 6 6 6 5 5 6 5 4 4 5 4 5 6 4 3 1 2 3 3 3 2 2 2 4 3 2 3 4 3 3 3 4 4 4 4 4 4
10 10 7 6 6 6 9 12 14 9 9 8 6 6 9 5 3 2 5 4 6 5 6 12 13 14 13 17 15 14 13 10 9 8 8 8 8 8 7 7 10 10 10 9 9 10 11 10 10 8 7 8 7 6 6 6 5 5 5 6 7 6 5 5 6 5 4 5 5 5 4 3 2 3 2 1 3 2 2 2 2 3 4 4 1 2 2 3 3 3 4 3 4 4 4 4 3
7 8 6 7 8 6 8 12 14 14 7 6 6 9 10 9 4 2 7 5 4 7 12 13 14 15 14 14 15 17 14 10 9 10 9 9 9 11 9 7 8 9 11 11 9 8 9 10 11 10 9 8 7 6 6 5 5 6 6 6 6 4 4 5 5 5 5 5 5 3 2 3 3 3 2 1 3 2 2 1 2 2 2 1 0 0 2 2 2 3 3 3 4 5 5 6 5
3 8 8 8 11 10 8 9 11 7 5 5 6 10 7 7 5 6 3 4 3 8 12 13 14 14 13 11 8 6 11 14 13 12 13 11 10 8 7 9 9 7 7 9 8 8 9 10 11 9 8 7 6 7 6 5 5 6 7 6 4 5 5 5 5 5 6 4 3 3 2 3 3 2 3 2 2 2 1 1 2 2 1 2 4 2 2 1 1 2 3 3 4 4 4 4 4
9 5 4 9 12 12 10 11 12 4 4 7 8 11 8 4 4 7 4 2 3 11 12 12 11 11 11 12 14 16 14 12 15 15 15 14 7 3 6 7 8 9 10 7 4 5 10 13 13 9 8 7 6 6 5 6 7 8 7 5 5 5 5 4 5 4 3 1 2 3 3 3 0 1 1 2 3 2 0 1 1 3 3 2 2 2 3 3 2 2 2 2 2 2 4 4 4
5 7 10 10 7 9 12 12 11 5 5 5 6 6 6 3 5 5 7 3 1 11 11 12 11 13 15 15 14 13 11 13 14 13 10 8 5 5 7 5 9 10 7 13 5 3 10 12 12 10 9 7 7 7 7 8 8 6 5 5 5 4 5 4 4 2 2 1 3 2 2 1 1 1 1 2 3 3 2 1 2 1 3 2 3 3 2 3 4 4 3 2 3 4 4 5 5
4 5 4 5 5 8 11 8 10 7 3 4 6 4 8 5 6 4 4 3 1 10 10 11 12 14 12 14 13 12 10 13 14 16 16 12 10 9 10 7 8 9 8 11 14 11 9 2 4 7 9 9 9 8 7 7 6 5 5 5 5 5 4 5 3 2 2 2 2 1 2 2 3 4 2 2 2 3 3 2 1 3 2 3 3 4 5 4 4 3 3 3 4 4 4 5 5
5 2 4 5 4 6 5 5 7 9 6 6 5 7 5 6 7 7 6 2 4 9 11 13 14 11 10 12 11 9 5 4 11 14 14 14 11 9 10 10 10 9 6 8 14 11 5 2 2 6 8 10 8 7 5 4 4 5 5 5 6 5 4 4 3 2 3 2 2 1 2 2 3 3 3 1 3 3 4 3 3 1 2 3 6 5 5 5 3 3 3 4 4 4 4 5 4
2 2 6 1 8 4 6 8 10 12 5 7 6 8 7 7 9 7 6 2 4 12 11 12 15 15 12 10 10 9 11 11 12 13 12 11 12 11 12 13 13 12 11 10 6 6 8 6 5 7 7 9 7 5 3 5 5 5 5 5 5 4 4 4 3 3 3 2 2 1 2 2 1 3 2 2 3 4 5 5 4 4 5 6 6 5 5 5 4 4 4 3 4 4 4 6 5
2 5 2 5 5 6 3 5 6 13 10 5 11 6 3 3 8 7 2 4 10 13 12 13 13 13 12 10 9 11 12 9 10 11 13 13 11 12 11 13 14 15 13 12 13 11 11 9 6 8 8 8 7 5 5 5 6 6 6 5 5 4 4 4 3 3 2 2 2 2 2 1 2 1 2 2 4 6 6 6 5 5 5 5 5 4 5 3 3 4 5 3 3 3 4 4 5
4 1 6 3 6 4 5 3 4 6 10 6 3 5 3 1 4 1 4 10 14 14 13 12 11 11 10 9 10 11 11 12 13 11 11 11 11 11 11 13 13 12 10 11 15 17 15 10 7 7 7 8 7 6 6 6 5 6 6 6 4 4 3 3 2 2 2 2 2 2 1 0 2 1 2 3 5 7 6 6 5 5 5 6 6 5 5 4 4 3 5 4 5 4 4 4 5
5 3 3 5 2 7 6 7 4 3 4 9 4 5 5 2 4 3 2 10 15 16 15 13 11 11 9 9 10 11 10 13 12 11 13 11 11 11 11 12 13 13 13 15 14 11 10 8 7 7 9 9 8 7 6 6 5 5 5 6 5 4 3 4 3 3 1 1 2 2 0 2 1 2 2 3 6 6 6 5 5 4 5 5 6 5 5 5 5 5 5 5 4 3 2 3 4
7 5 5 4 6 4 5 3 2 7 4 5 6 5 7 3 5 4 4 6 15 12 10 10 11 9 8 9 10 10 10 9 8 10 12 11 10 10 10 11 12 13 13 12 12 9 10 8 8 8 9 9 9 8 7 6 5 6 6 5 5 3 2 3 3 2 1 2 2 2 2 2 1 1 2 4 6 6 6 5 5 4 5 5 5 5 5 5 5 5 5 4 5 5 3 5 5
5 5 4 7 6 4 2 3 4 5 4 7 8 8 9 5 9 7 8 7 11 13 12 11 11 11 11 12 11 10 11 11 8 9 11 12 9 8 8 10 10 11 13 13 12 11 13 12 12 11 9 9 9 9 7 7 6 5 4 5 5 3 3 2 3 2 2 3 2 1 2 2 0 3 4 5 7 6 5 5 5 4 4 5 4 4 3 4 4 4 4 4 5 6 5 6 7
7 5 6 8 6 8 4 5 5 6 6 5 7 9 10 7 7 9 8 14 12 13 12 12 12 11 11 14 12 11 9 5 7 7 6 6 8 8 7 8 9 12 9 9 13 16 14 12 13 11 8 8 8 8 8 6 5 5 5 5 4 4 4 4 2 2 3 2 2 2 3 2 3 4 4 6 6 6 6 5 5 4 4 5 4 4 4 5 6 6 5 6 3 5 5 6 7
10 8 5 3 6 4 8 10 8 5 6 8 4 9 10 9 10 9 13 14 12 15 20 18 16 14 13 12 12 12 11 11 9 8 7 6 9 11 12 11 10 9 8 4 4 7 11 11 10 9 8 8 7 7 7 6 3 3 4 4 6 4 1 1 3 2 2 3 4 5 4 3 4 4 5 6 5 5 5 5 6 6 6 6 6 6 6 7 6 6 6 5 5 4 3 4 7
6 7 6 7 3 4 6 9 6 5 5 4 5 9 5 2 5 5 1 3 9 4 1 9 15 21 18 17 17 15 13 15 14 12 10 8 7 10 9 10 9 8 7 5 6 7 7 8 9 9 8 7 7 6 6 5 6 4 5 6 5 4 2 2 2 2 1 4 4 3 3 4 5 5 5 5 5 6 6 7 7 7 6 5 5 6 6 7 6 6 6 6 3 5 5 5 6
8 8 6 6 7 6 7 3 2 1 7 7 2 1 2 5 9 3 2 4 8 6 7 5 2 1 6 8 7 10 17 16 15 12 11 10 9 10 11 10 8 8 6 7 7 7 6 7 8 8 8 7 6 6 7 7 7 7 7 7 6 6 5 3 3 3 3 3 4 4 3 4 5 5 4 6 7 8 7 7 7 6 6 5 5 6 6 5 5 5 6 6 6 3 6 4 6
10 9 8 8 6 8 12 1 3 2 5 8 9 0 4 5 12 12 7 5 5 6 10 7 6 7 9 9 8 7 7 8 14 17 15 13 12 13 10 11 9 8 7 5 6 7 8 7 7 7 7 6 7 7 8 8 8 9 8 8 7 5 6 5 6 7 4 4 5 3 3 4 6 6 7 8 8 7 8 7 6 6 5 5 6 5 5 6 6 7 6 5 6 5 4 6 5
8 7 9 11 10 9 7 1 2 3 3 5 10 11 3 1 4 5 6 7 8 4 5 8 8 9 9 9 8 10 11 12 9 10 11 13 13 12 11 11 10 10 8 7 5 7 8 8 7 7 7 6 6 6 6 7 7 7 8 8 8 9 8 3 1 2 5 4 4 4 4 5 7 8 8 8 7 7 7 6 5 5 5 5 5 6 6 5 5 5 5 6 5 5 5 6 6
10 3 6 9 10 11 6 1 2 6 3 5 5 6 8 3 4 4 2 6 7 6 6 7 7 8 8 8 8 10 11 11 13 13 13 14 15 15 15 13 11 10 8 7 7 7 9 9 8 7 6 6 5 6 6 6 8 7 7 6 6 6 6 6 5 5 3 4 5 4 4 5 6 7 8 8 8 7 6 6 5 5 5 5 6 6 5 5 6 6 6 6 6 6 5 5 4
5 5 5 6 7 7 3 3 5 5 3 9 4 1 4 1 1 4 7 9 6 8 9 9 9 8 8 8 8 10 10 11 13 14 15 14 14 13 13 13 10 10 9 9 8 8 8 8 8 6 6 6 6 6 7 6 6 7 7 8 6 2 4 6 6 4 5 4 5 3 6 6 7 8 8 8 7 6 6 5 4 5 6 5 5 5 5 5 7 7 7 6 5 5 5 4 5
10 4 4 5 4 1 3 5 6 4 2 8 5 4 5 0 1 8 2 4 9 11 13 10 10 9 9 10 9 10 10 11 11 15 15 13 11 10 8 9 10 9 8 9 8 8 8 8 8 8 7 6 6 6 6 5 6 7 8 7 9 6 5 5 5 5 5 4 5 4 5 6 7 7 7 7 6 5 5 5 5 5 5 4 5 5 5 7 8 8 6 5 5 6 5 6 6
2 6 7 6 3 2 2 4 4 1 5 8 9 5 6 4 7 12 11 10 17 12 7 7 8 7 8 8 10 11 12 12 11 11 11 11 9 9 9 10 10 9 8 9 8 8 8 9 9 8 7 6 6 6 6 7 6 6 8 8 9 9 6 7 6 5 4 3 5 5 6 6 6 6 6 6 6 5 5 5 5 4 4 4 5 6 6 7 7 6 5 6 7 7 6 7 7
6 5 8 3 9 1 1 4 2 5 5 7 6 6 4 5 5 7 13 13 16 17 17 17 15 14 12 12 12 11 11 11 11 11 11 13 13 12 11 12 12 12 11 10 9 9 10 9 9 9 7 7 6 6 5 6 6 5 5 8 9 9 8 7 7 7 5 5 6 6 5 7 6 6 6 6 6 5 5 4 4 4 5 6 6 5 7 7 6 5 5 6 6 7 7 7 7
7 5 6 9 3 3 4 4 6 5 6 6 4 5 1 6 7 18 22 14 12 18 19 18 19 16 14 13 14 12 10 11 11 11 12 14 15 15 15 14 13 14 13 12 10 10 10 10 10 10 9 7 6 6 6 5 5 6 6 6 7 7 7 6 6 6 5 6 6 6 7 7 6 7 6 6 4 4 4 5 4 5 6 6 6 7 6 6 6 5 5 6 7 7 7 7 8
9 8 7 8 6 5 4 2 1 1 5 6 1 8 4 3 5 11 21 20 18 17 12 18 21 19 17 14 13 12 11 11 10 10 11 13 14 14 14 13 13 12 13 12 10 9 8 9 10 10 9 7 6 6 6 6 6 6 6 6 6 6 5 5 5 6 5 6 6 6 7 7 7 6 6 6 4 3 3 3 3 4 5 5 6 6 6 5 5 5 6 7 8 7 8 9 9
10 3 8 7 4 3 2 3 7 8 6 4 2 4 3 6 7 13 21 24 13 10 10 11 13 14 13 11 9 9 10 9 9 10 11 12 13 15 14 13 12 12 13 12 10 9 8 9 9 9 9 8 7 7 6 7 6 5 4 4 5 6 6 6 5 6 7 7 5 7 6 7 7 6 6 4 3 3 2 2 4 6 6 6 5 5 5 5 4 6 6 7 7 7 8 8 8
7 4 6 5 10 5 1 6 6 3 2 2 0 3 6 6 1 3 2 8 11 13 14 13 10 8 8 9 10 11 11 11 9 9 8 9 12 14 12 12 11 11 13 11 11 10 10 9 9 10 9 8 7 7 6 7 6 6 5 6 7 8 7 6 6 6 6 6 7 8 7 7 6 6 5 4 3 3 2 4 6 6 5 5 4 4 4 5 6 7 7 7 8 6 8 9 7
6 8 11 8 5 6 2 1 0 4 5 5 0 2 4 6 6 10 10 14 11 13 13 13 13 12 11 11 11 11 11 10 10 10 9 11 10 10 10 12 11 11 11 11 11 11 10 10 10 10 8 7 8 7 8 7 8 8 7 6 7 8 8 8 8 8 8 6 7 7 7 7 5 5 5 3 3 3 3 4 6 5 5 4 4 4 4 5 7 7 7 8 8 7 8 8 7
5 8 5 3 3 6 4 4 1 2 5 5 1 5 4 1 3 2 8 13 11 14 15 14 13 12 13 12 11 11 11 11 11 10 10 10 10 11 10 10 11 11 13 12 11 10 10 9 11 11 9 10 8 9 8 8 9 8 7 7 6 7 8 8 8 8 7 8 6 7 6 6 5 5 4 3 3 3 4 4 5 5 4 4 4 3 4 7 8 8 8 8 7 7 8 7 7
8 6 6 8 6 6 3 4 2 2 2 2 1 1 3 4 3 4 5 12 12 12 12 13 13 14 14 12 11 10 8 9 10 11 11 11 11 11 11 11 12 12 11 11 9 11 10 9 10 9 10 9 10 8 8 7 7 7 6 7 8 7 7 7 7 7 7 8 7 6 6 6 5 4 4 3 3 4 4 4 5 4 4 4 3 4 5 7 8 8 8 8 7 7 7 7 6
0 5 8 5 6 4 2 5 4 8 3 2 5 1 4 5 9 13 13 13 16 16 14 17 20 20 16 14 13 12 11 11 11 11 11 12 12 13 13 12 13 13 11 10 11 11 12 11 10 9 9 9 9 10 9 9 7 7 7 7 6 6 7 7 6 7 7 7 6 5 5 5 4 3 3 3 4 5 4 4 4 4 4 3 3 4 6 8 8 7 8 8 7 7 7 7 6
5 5 5 3 3 2 5 1 4 6 4 4 3 2 4 5 7 14 16 15 16 21 20 16 15 16 15 14 14 13 13 12 11 12 12 13 13 11 11 9 9 10 9 10 11 12 11 10 10 12 13 11 10 9 9 8 8 8 8 8 7 7 7 6 6 6 7 6 5 5 5 3 2 1 3 4 5 5 5 6 6 5 5 5 5 6 6 7 8 8 7 8 7 7 7 6 6
6 6 5 6 7 3 5 6 1 3 5 3 4 5 7 8 3 13 17 16 17 18 19 16 16 16 14 12 12 14 13 12 12 13 12 13 10 9 10 10 9 11 10 11 11 12 12 11 11 11 12 10 10 8 8 8 7 7 8 8 7 6 7 6 7 6 6 5 4 4 3 3 2 3 5 7 7 6 5 7 7 6 5 5 6 6 6 7 8 8 7 6 7 7 6 6 6
Wind_Direction
343 341 324 319 321 305 44 2 15 307 53 262 279 324 261 213 282 318 300 313 41 350 96 119 130 145 179 195 177 121 95 145 194 136 213 211 146 144 132 136 138 136 140 148 156 155 154 155 151 146 144 143 140 137 135 131 128 127 125 122 120 117 115 114 115 113 111 109 110 111 110 107 105 104 105 105 103 102 104 107 110 110 105 102 98 96 92 88 83 77 75 74 74 76 81 79 79
338 338 324 327 316 40 297 113 102 348 32 345 259 291 265 285 314 267 287 316 292 168 115 115 102 80 71 91 104 100 44 356 344 42 43 112 114 124 140 142 141 138 143 150 154 150 155 155 152 146 145 144 142 138 136 132 129 128 126 123 120 119 116 117 118 114 110 109 111 114 115 116 113 97 90 89 95 99 104 115 113 110 110 107 102 95 89 82 74 69 68 69 70 70 78 81 84
341 352 342 5 25 84 252 51 277 178 332 278 269 231 297 306 278 305 290 330 14 103 119 119 115 108 118 82 101 116 226 70 88 132 95 142 123 173 151 146 143 141 145 149 150 149 151 155 152 146 145 145 142 139 136 133 131 130 127 124 122 119 118 119 118 113 111 110 110 112 113 115 113 100 89 81 73 86 99 112 121 116 115 109 103 95 90 80 72 65 62 61 58 62 70 80 81
338 27 65 25 320 18 77 25 104 143 202 232 276 274 253 262 276 273 272 296 137 202 55 190 112 284 141 132 163 86 88 188 157 139 141 184 198 151 149 142 136 134 137 145 149 149 149 156 151 147 145 145 144 140 137 134 133 132 128 125 123 121 121 122 117 112 112 111 112 114 116 120 115 102 92 83 78 79 83 88 122 120 113 113 107 99 87 77 68 62 59 57 55 52 57 70 62
353 303 100 60 110 330 107 202 167 121 207 217 235 263 266 265 275 282 294 304 303 315 323 316 49 349 39 90 199 156 201 82 139 175 139 168 105 143 139 138 134 136 141 145 145 147 151 153 151 147 145 145 144 140 137 136 134 133 130 125 122 123 124 121 116 114 114 116 118 120 121 121 106 99 92 88 86 83 84 89 112 124 118 116 105 94 86 76 67 61 56 54 53 51 52 51 47
349 43 346 94 173 197 52 78 278 191 213 175 244 252 260 268 277 284 287 297 280 310 171 78 174 176 8 317 345 294 133 168 173 171 150 145 143 144 137 136 135 138 139 140 143 145 152 154 152 147 144 145 145 142 137 136 135 133 130 125 125 125 123 120 119 117 118 120 120 124 118 107 101 96 96 96 95 91 88 90 98 129 130 125 121 106 92 77 69 60 54 48 47 42 38 41 32
359 17 8 28 343 65 174 171 215 217 250 181 239 255 261 275 272 285 290 309 284 256 176 157 117 90 56 289 5 58 321 99 144 160 154 139 137 143 142 137 135 133 136 139 140 145 152 152 151 146 144 146 146 143 139 137 136 134 130 127 128 125 121 122 120 118 118 119 117 115 111 108 105 101 99 100 99 99 94 93 88 68 73 151 113 98 82 71 59 55 50 45 41 35 20 19 11
200 108 254 110 213 86 211 197 220 189 259 191 233 252 264 267 276 272 275 251 287 278 84 136 152 99 221 8 170 307 4 43 88 111 122 132 138 143 144 137 128 129 133 136 140 142 151 146 147 143 144 145 146 143 141 138 136 134 131 130 128 123 123 123 122 120 120 118 120 119 117 117 114 112 109 106 108 105 103 99 90 73 59 93 87 82 73 65 57 49 47 42 33 26 10 360 360
2 96 311 76 184 27 108 201 222 246 282 265 262 250 257 263 269 270 272 258 275 278 146 166 185 111 217 72 1 297 20 101 104 119 130 133 141 148 141 135 130 129 129 134 136 140 138 143 142 143 145 147 146 144 141 139 136 133 133 132 127 125 128 124 123 123 122 122 124 125 126 126 123 122 122 119 114 107 101 99 94 83 74 91 96 83 75 61 55 48 43 33 26 16 6 358 349
19 107 249 162 131 208 224 286 193 227 225 232 235 255 251 256 262 263 259 275 257 70 186 162 332 131 144 112 120 324 133 118 119 123 135 139 139 132 127 128 129 129 129 129 133 128 135 141 141 145 147 146 146 144 140 137 136 133 134 130 128 130 126 124 126 126 126 128 127 127 124 120 119 116 113 120 119 112 104 99 95 86 80 87 93 84 71 59 46 39 32 22 19 11 358 351 346
290 349 159 148 170 200 206 243 235 277 243 253 255 252 254 255 259 269 262 250 266 137 123 114 70 124 118 59 187 357 121 129 127 138 141 135 125 124 120 120 125 130 130 131 125 127 137 140 145 146 145 144 143 140 137 134 131 130 131 129 129 129 127 129 130 130 130 131 132 132 131 130 128 126 126 124 122 119 113 107 102 100 100 96 101 92 74 63 45 19 16 10 5 1 352 347 340
133 184 166 178 201 188 212 211 229 251 271 281 263 253 252 246 258 264 267 264 260 151 162 172 176 139 81 122 206 121 134 136 134 135 134 123 119 119 119 118 118 119 124 126 126 130 133 142 144 150 145 141 139 138 135 131 131 131 132 131 131 130 132 134 134 133 134 136 138 137 138 136 134 135 131 128 131 133 124 117 117 126 136 143 140 119 49 34 23 11 356 354 350 347 344 340 335
161 156 129 102 217 181 199 211 241 238 266 249 242 255 256 266 241 245 266 266 168 165 195 220 134 132 125 147 124 117 141 145 119 122 120 120 119 117 113 114 117 119 119 123 127 131 137 138 146 146 144 143 140 138 134 132 131 133 133 133 136 134 137 138 138 137 137 140 142 144 143 140 141 143 141 136 129 125 121 120 127 141 151 161 169 197 62 6 6 340 340 335 334 333 330 330 328
161 181 141 215 170 184 176 213 224 233 262 249 247 252 261 262 273 234 232 248 212 169 200 148 143 116 83 102 137 166 163 136 119 118 118 116 113 111 111 114 119 121 124 128 130 136 138 142 140 141 143 139 143 139 135 133 133 134 136 137 138 139 141 142 141 140 141 143 146 150 151 151 152 155 151 141 132 121 124 130 139 144 149 177 202 246 244 285 304 313 317 316 316 316 318 318 321
201 213 109 171 260 163 211 195 203 220 253 245 252 250 258 249 258 251 191 185 295 144 106 121 150 117 192 156 170 185 166 134 126 121 118 113 111 112 113 115 120 124 127 131 135 138 141 139 137 137 134 138 139 134 138 137 137 138 141 142 142 143 145 145 142 143 147 149 156 161 162 160 161 163 159 152 145 147 150 149 150 172 172 203 270 256 278 290 296 303 310 311 313 312 311 313 313
191 132 180 200 230 179 261 200 217 217 252 239 247 245 279 279 271 255 234 155 112 113 138 163 246 201 171 181 179 162 146 133 129 122 118 115 114 114 117 121 124 131 134 137 141 142 140 135 135 134 135 138 136 136 136 138 142 145 148 148 148 149 149 146 147 149 154 160 161 164 168 168 167 167 167 160 157 170 178 171 192 185 195 208 242 249 283 287 299 303 306 311 310 310 310 310 310
128 159 243 205 245 187 237 194 178 222 237 248 257 324 273 286 280 251 332 49 130 168 190 105 189 100 163 186 134 139 132 133 129 125 120 122 125 125 127 132 136 136 140 143 146 143 134 134 136 135 137 136 137 135 133 137 149 149 152 153 154 155 150 150 152 157 161 168 165 168 173 155 165 181 178 167 176 173 184 199 201 203 219 218 221 232 260 278 292 300 302 302 301 300 303 305 307
148 206 194 232 206 213 197 213 186 204 213 256 286 273 217 262 288 258 350 21 80 47 41 353 17 33 73 100 137 132 131 136 139 133 134 133 139 140 143 150 150 150 148 141 144 138 134 135 138 139 140 139 141 136 137 142 149 148 150 156 157 156 153 153 154 162 175 170 171 177 177 182 179 196 202 193 187 188 207 206 205 206 216 228 247 265 278 270 270 274 281 285 288 292 296 300 300
191 191 167 229 191 224 165 210 238 244 254 268 247 302 263 256 164 245 58 266 86 76 32 17 71 57 82 121 131 131 136 139 142 139 142 147 154 155 155 155 153 144 143 139 142 143 139 135 138 139 137 141 138 134 140 139 139 142 149 150 155 156 160 151 154 179 182 169 171 193 192 200 188 211 202 216 194 205 205 208 210 213 218 233 241 264 279 287 289 286 285 283 280 282 288 293 295
220 180 216 231 197 213 222 237 257 243 256 280 304 313 275 253 184 80 181 228 103 136 133 45 110 130 130 135 138 135 139 144 144 145 150 157 162 159 154 148 138 135 133 137 133 124 132 135 136 133 136 135 133 137 134 133 140 146 148 145 146 149 145 144 181 195 188 178 191 204 208 216 219 216 224 220 215 194 197 210 214 218 223 235 254 261 284 292 291 296 296 299 302 303 294 282 283
236 188 221 223 194 229 235 224 241 261 261 269 297 296 304 295 267 119 193 154 218 225 183 162 174 147 141 147 143 141 145 147 148 152 157 164 156 135 132 131 135 133 131 123 120 135 142 133 133 133 132 130 135 140 140 139 145 147 145 152 150 148 148 170 199 209 195 188 201 204 214 217 228 222 233 264 223 177 189 203 218 217 228 260 253 259 258 268 285 284 292 296 284 285 291 287 286
283 227 216 218 188 215 233 234 245 253 266 273 304 325 271 290 291 153 184 226 231 211 210 155 145 145 144 153 152 145 150 151 155 161 167 160 155 153 145 136 135 134 139 141 146 147 152 148 141 136 134 140 145 143 143 153 152 154 158 170 156 164 175 191 205 215 209 203 203 212 213 225 232 232 229 227 205 179 191 206 212 197 224 246 235 243 259 261 264 259 263 271 271 263 265 273 273
237 260 237 213 218 216 222 234 241 241 256 271 280 237 302 3 270 252 151 181 245 240 160 141 149 159 157 149 151 154 156 161 166 169 161 159 162 154 147 142 142 142 146 146 143 147 148 142 138 140 141 146 148 147 152 151 159 167 168 170 166 188 199 197 215 219 222 211 209 206 211 223 228 236 214 200 184 191 201 203 214 203 216 249 250 242 264 258 260 270 275 269 273 268 267 268 271
234 246 236 245 227 235 243 247 238 227 242 250 242 286 267 307 310 269 332 266 256 257 157 154 145 131 137 149 163 163 168 170 173 156 146 136 117 124 133 136 136 134 135 137 138 144 149 150 152 153 152 154 167 167 160 166 171 171 179 176 185 199 194 203 215 224 220 207 219 214 205 194 179 191 165 137 200 187 202 205 198 196 219 248 248 223 268 284 298 306 297 294 294 291 289 283 279
226 242 237 254 247 238 238 241 253 236 242 254 258 259 260 228 237 348 284 283 302 21 103 117 129 130 135 145 157 163 164 152 120 113 97 76 74 65 66 110 131 133 129 138 148 152 155 155 157 159 161 167 173 173 169 180 172 183 182 187 196 204 187 203 214 220 223 215 215 203 182 140 106 109 105 182 165 145 185 191 175 198 215 238 245 306 275 297 309 303 294 281 278 284 287 289 291
229 233 237 246 248 242 233 241 240 244 247 242 260 250 252 234 203 244 259 273 299 111 115 121 127 136 147 157 160 165 164 140 100 75 67 65 60 70 62 85 120 129 138 141 152 158 152 155 159 164 170 175 172 172 182 173 181 189 196 198 203 189 187 205 209 203 204 201 194 168 132 129 109 114 129 59 80 73 71 65 159 215 230 221 129 183 246 220 252 282 303 320 332 328 329 324 333
178 213 231 237 245 248 247 231 243 236 221 221 224 250 248 237 176 277 290 252 130 119 129 134 138 144 147 142 130 84 57 47 50 43 37 36 34 52 59 73 77 67 108 132 149 157 159 158 162 168 171 174 169 184 178 179 184 198 201 200 175 186 186 197 198 198 198 204 152 114 116 112 146 150 128 125 116 77 29 226 221 185 88 65 126 161 188 152 283 336 318 323 326 325 319 314 326
252 248 249 241 245 246 248 249 248 188 256 209 215 249 231 227 168 213 228 281 53 128 136 136 136 131 111 83 73 69 68 65 61 57 48 29 32 6 82 115 105 94 80 49 1 173 167 168 164 164 166 172 175 186 179 185 197 202 199 175 174 187 172 176 177 189 172 105 80 70 59 29 39 114 115 98 98 103 107 266 49 51 52 84 84 40 24 354 348 325 351 335 314 341 333 338 334
241 227 241 257 258 255 243 240 246 202 249 194 194 255 260 182 210 205 203 220 100 133 137 131 112 91 83 84 95 100 115 110 110 104 104 138 162 148 119 136 121 113 122 120 145 194 184 174 161 160 162 170 182 185 190 197 201 192 168 165 174 145 141 147 155 134 106 79 72 76 68 12 355 311 192 129 108 91 55 27 38 79 116 81 63 57 44 10 18 15 8 359 14 6 355 340 336
229 223 205 262 265 255 247 236 241 236 224 170 136 248 244 263 258 261 227 176 115 120 123 115 97 97 107 113 115 128 138 133 143 143 144 150 154 143 135 142 133 137 153 153 155 178 181 234 155 145 166 173 183 187 196 195 188 154 154 147 127 125 145 127 110 108 103 75 81 76 74 24 353 336 272 106 93 91 70 51 107 105 73 85 77 52 31 28 29 33 3 17 357 3 344 327 336
217 236 168 206 224 252 258 224 226 236 203 196 162 242 269 273 277 271 281 171 173 129 121 118 122 112 121 130 133 130 96 62 114 125 141 149 145 148 137 142 143 150 158 159 170 165 147 237 125 141 170 172 176 182 190 151 136 129 124 122 117 121 118 113 114 110 81 85 92 62 45 12 349 5 329 23 80 71 54 50 65 82 94 64 52 45 54 38 39 27 16 15 348 351 343 324 333
281 222 238 253 191 275 259 223 210 219 241 175 155 245 227 236 251 258 247 242 122 122 118 125 134 140 136 128 111 100 113 129 128 132 143 147 149 150 154 153 155 157 169 170 127 116 178 202 170 147 164 163 161 146 130 122 124 119 118 112 109 112 113 103 101 94 109 101 109 71 52 352 3 30 38 60 44 47 63 65 43 44 43 54 53 46 49 36 10 8 4 41 14 342 344 334 339
218 181 246 213 161 236 264 239 213 212 223 212 183 224 152 269 242 249 311 105 118 123 124 135 145 133 130 136 134 132 129 135 137 146 158 158 161 159 155 158 162 167 172 164 154 172 188 188 171 160 159 135 109 121 126 118 117 113 109 108 111 110 107 107 106 116 105 102 85 68 36 305 56 49 31 10 61 71 63 62 50 55 56 61 54 42 42 26 30 11 1 8 49 340 345 329 329
280 144 204 214 183 197 217 287 214 199 198 237 220 215 205 208 347 15 110 122 115 130 141 144 142 147 141 133 137 139 144 146 152 160 163 164 168 164 157 160 162 162 169 170 169 173 182 176 164 152 123 116 124 127 125 123 124 122 115 112 109 102 97 93 93 93 81 76 79 71 27 198 80 9 29 47 75 77 74 67 57 55 59 58 53 42 28 17 23 37 11 359 8 6 348 343 333
195 215 193 259 221 184 188 176 248 152 208 221 242 239 243 227 97 45 76 134 134 144 149 146 145 148 149 139 146 149 150 151 163 162 162 164 164 167 159 159 163 164 170 178 176 182 161 154 145 137 126 129 128 128 128 124 114 95 96 102 99 89 77 69 77 79 76 67 78 102 168 69 67 15 22 75 82 79 73 66 60 52 59 59 53 42 25 14 16 15 33 0 0 353 324 338 329
201 186 211 207 199 230 205 226 241 204 217 219 223 219 241 174 112 117 110 141 130 131 125 132 141 144 142 147 150 155 155 155 160 154 158 161 168 166 162 161 167 168 172 176 174 164 155 147 141 139 141 139 132 131 134 130 128 130 118 98 89 87 67 84 68 93 102 107 145 150 178 97 27 354 50 78 83 80 78 69 66 50 54 57 51 41 21 18 22 19 16 20 9 354 351 357 353
198 202 213 227 209 263 248 212 237 205 228 223 218 218 223 175 159 151 132 110 114 130 138 148 152 149 150 154 159 158 160 163 171 150 152 165 163 163 158 160 166 174 172 174 168 169 164 157 152 153 152 144 141 145 147 148 146 135 118 130 127 128 130 106 92 116 139 178 164 165 85 34 27 90 85 78 71 72 71 63 54 41 46 57 56 43 31 31 39 49 25 24 19 8 358 356 355
234 220 216 241 218 227 230 235 229 227 181 251 219 215 224 170 163 153 145 130 144 148 148 154 159 154 157 158 158 157 152 134 147 139 142 151 154 146 145 161 169 173 187 184 176 172 161 155 155 151 148 147 149 153 152 155 162 166 147 149 133 136 138 133 134 194 189 162 146 91 73 97 102 93 90 81 76 73 64 55 46 34 34 36 49 43 47 42 33 33 32 18 19 26 1 354 353
230 223 216 233 249 235 245 237 227 222 167 245 220 214 220 183 161 165 163 153 166 168 164 170 157 161 162 167 156 154 146 149 152 152 145 155 159 159 160 169 179 176 163 188 197 168 155 152 149 147 151 150 155 154 149 150 137 136 131 140 135 111 46 131 157 170 141 120 98 98 111 110 96 90 84 81 79 70 66 55 41 35 40 42 50 42 40 36 29 28 26 40 1 8 0 355 5
225 227 218 218 234 189 251 247 231 224 174 212 200 211 233 114 95 148 216 149 150 163 241 164 163 162 171 171 165 157 153 149 161 169 155 153 165 161 163 160 167 159 161 166 174 173 158 147 145 146 148 149 149 150 132 128 130 111 84 101 80 81 135 118 63 61 80 94 97 122 106 105 97 87 83 83 76 62 53 51 52 54 51 52 63 53 39 33 24 23 21 24 36 25 12 356 8
235 218 216 213 223 238 211 244 27 239 243 234 182 147 51 164 144 153 66 104 103 121 127 138 161 113 134 138 143 158 151 154 160 161 150 150 156 168 168 163 156 155 160 168 165 163 155 145 142 142 145 146 142 141 137 133 119 99 90 75 77 78 64 75 118 108 131 122 114 90 100 95 91 84 73 67 64 62 59 60 63 60 58 48 56 54 44 32 32 27 31 35 30 45 32 4 5
240 236 204 219 220 229 246 38 37 341 288 239 179 96 244 228 179 166 167 130 119 153 149 163 161 150 149 151 142 126 136 157 161 162 160 158 162 166 168 152 160 155 150 156 154 147 141 137 130 134 135 139 145 149 146 140 140 135 129 124 127 130 144 158 159 153 145 122 116 129 93 83 77 69 65 67 64 67 65 64 65 62 56 46 52 55 43 33 28 32 32 46 39 33 67 35 19
213 236 185 220 230 233 245 43 40 321 220 264 175 179 256 238 187 171 181 158 136 147 170 158 160 161 162 161 149 149 150 156 166 155 152 154 163 159 158 158 161 156 153 144 138 138 136 132 135 142 144 145 149 149 146 137 134 140 145 147 150 155 150 177 153 129 131 129 121 107 95 78 79 79 70 70 69 70 70 63 64 63 59 54 46 46 40 35 37 44 36 46 43 40 45 59 33
229 184 174 210 223 236 239 245 179 242 241 295 250 188 154 180 245 177 137 135 141 157 186 174 174 170 168 157 151 155 158 160 158 155 161 167 168 166 160 161 163 157 147 139 137 138 138 137 138 143 142 147 152 148 149 151 147 146 135 134 141 151 156 148 147 146 130 122 112 110 92 80 77 78 76 71 74 73 72 68 63 58 55 47 49 47 46 40 50 45 46 46 50 47 48 59 50
228 226 203 222 208 227 204 202 235 241 308 297 238 182 75 236 245 96 137 139 194 201 197 193 177 180 170 158 153 155 160 165 159 157 166 169 172 168 158 158 155 146 147 147 148 145 137 136 136 138 144 148 155 157 153 154 147 145 139 135 129 145 140 137 139 131 121 125 116 119 99 88 78 73 73 75 73 76 74 74 64 59 54 45 46 47 45 52 59 61 50 43 47 47 43 42 49
227 215 240 240 241 169 178 214 224 249 232 265 243 214 114 146 199 137 187 198 197 204 202 194 182 180 173 165 158 155 161 166 166 163 163 165 164 156 149 140 144 149 147 145 143 139 138 136 140 146 152 157 156 151 149 145 138 135 135 139 139 147 143 128 126 132 138 143 126 111 94 85 83 78 74 76 75 72 74 67 65 59 51 46 49 49 50 53 59 62 55 52 44 51 34 40 46
158 188 246 272 285 242 242 221 194 112 221 249 232 226 132 167 209 177 158 203 199 186 182 186 181 177 173 169 162 164 169 169 168 163 157 147 139 140 142 143 141 142 145 147 146 145 141 140 145 149 156 152 150 146 149 148 141 142 142 145 147 146 148 137 135 146 143 140 118 106 95 92 84 88 89 77 76 70 65 60 64 60 56 53 52 51 55 67 68 66 55 51 48 48 40 40 37
184 185 206 278 299 6 276 259 75 195 249 258 240 203 150 150 206 234 224 213 183 168 181 185 182 180 171 174 174 173 174 172 168 157 145 142 143 149 151 148 151 151 152 155 155 151 146 147 147 146 151 150 141 139 140 143 138 132 134 144 150 151 146 150 156 158 164 144 130 120 114 97 86 83 80 80 64 60 63 55 48 49 49 50 52 56 67 73 75 69 58 56 54 50 46 47 44
205 188 161 171 258 137 252 205 230 196 189 243 225 177 41 238 197 195 215 218 196 187 179 177 177 176 174 174 174 174 173 174 170 160 154 155 158 162 163 157 156 157 158 162 159 154 151 150 150 150 152 143 140 139 142 136 128 131 140 148 152 150 147 156 154 145 156 140 136 127 110 101 97 84 81 84 75 80 85 74 56 51 52 55 64 68 68 69 72 72 71 65 60 55 50 49 49
195 199 168 159 193 197 205 240 176 282 280 247 244 184 208 234 289 208 202 212 203 193 183 171 173 174 175 172 171 172 175 179 171 168 164 164 164 164 163 160 158 155 157 159 158 151 150 149 151 155 148 139 138 138 138 131 130 135 145 153 150 140 125 131 131 134 133 125 128 121 112 110 102 106 101 97 118 105 101 96 76 64 60 70 77 77 75 73 76 80 74 68 61 56 54 51 49
208 149 156 178 144 159 189 200 186 200 200 224 286 112 226 140 224 190 201 206 189 142 160 171 177 172 166 160 155 163 172 178 171 176 173 170 166 164 166 162 155 154 155 155 155 151 148 151 155 149 139 139 143 143 135 131 132 135 138 137 129 117 122 117 115 123 128 125 123 113 108 105 106 114 113 121 120 113 115 64 56 57 71 80 82 80 77 73 74 74 72 71 69 62 58 56 51
208 183 105 141 208 133 168 199 149 195 174 294 40 188 184 166 210 320 200 73 98 136 142 152 167 157 155 157 164 171 178 177 176 175 170 170 169 167 164 158 151 150 151 151 154 155 153 151 148 146 146 145 147 139 136 133 132 127 127 132 130 123 120 114 110 110 112 119 123 117 114 110 117 119 120 123 132 121 99 64 63 88 94 89 84 88 86 80 77 80 75 71 68 59 61 55 47
200 141 204 211 158 118 96 33 137 102 70 230 209 327 308 299 13 16 107 116 119 129 144 157 163 166 167 176 177 179 177 175 173 175 175 168 167 167 161 154 150 148 150 153 156 155 148 142 142 142 146 144 139 134 128 128 128 127 133 133 130 124 126 126 126 123 121 120 119 119 120 132 129 114 118 133 113 81 77 84 96 97 94 93 88 88 88 84 83 84 81 73 69 58 61 56 49
146 196 221 137 145 118 136 185 319 84 141 245 82 196 283 58 240 349 90 120 141 141 157 164 164 165 177 186 185 179 176 175 173 168 167 160 156 159 155 152 153 152 152 151 150 145 141 140 144 146 149 141 134 130 129 131 131 129 130 126 120 123 124 123 125 125 126 121 117 120 126 124 126 121 122 124 108 80 77 98 103 99 96 94 102 87 81 82 89 86 82 74 71 66 63 57 52
198 189 196 171 214 238 312 95 183 124 165 244 314 230 247 153 188 121 148 144 155 153 151 153 170 181 185 183 179 169 162 166 171 162 157 155 157 161 157 151 152 154 152 148 138 137 139 142 149 150 146 140 137 133 128 123 125 128 129 128 125 121 121 122 123 124 124 120 123 130 129 123 106 101 119 121 99 97 112 105 105 107 101 100 89 74 71 81 91 88 81 79 69 67 67 63 51
166 123 176 174 105 150 137 203 176 122 215 123 278 50 241 219 178 182 169 171 159 161 164 179 182 184 184 178 173 166 167 176 170 160 157 160 163 164 161 157 157 152 149 145 142 140 143 149 149 142 134 133 132 130 129 126 127 124 123 117 112 119 124 125 128 127 121 121 130 126 114 113 121 126 126 104 108 137 124 92 65 62 56 45 47 50 71 86 87 88 90 83 75 72 69 65 60
172 172 188 161 190 219 135 116 141 169 167 169 172 302 286 259 198 170 170 169 176 170 181 181 181 184 184 174 167 167 170 176 170 160 162 167 168 163 153 147 144 140 142 144 146 143 144 147 148 145 141 140 133 131 126 125 126 124 122 119 123 124 122 119 117 119 119 124 120 115 113 106 83 52 87 108 121 105 88 87 78 65 63 57 55 55 75 93 91 91 86 88 83 76 73 64 62
163 159 196 165 146 175 158 249 347 111 100 196 138 234 270 269 203 174 165 178 178 189 169 173 179 182 179 170 167 165 172 177 164 163 167 166 154 141 146 151 151 144 148 151 147 145 149 153 151 146 138 140 134 133 130 127 122 123 121 122 123 122 121 120 118 119 121 120 113 104 94 64 46 33 89 93 103 98 95 91 85 72 63 63 65 68 76 89 95 92 86 86 89 82 76 67 62